EW4337 Weather Reports


Display with metric or nautical units.
time (UTC)temp
F
wind
direction
speed
MPH
gust
MPH
rain 1hr
in
rain 24hr
in
rain mn
in
humidity
%
barometer
mb
20170924211705 56 84 0.0 0.0 0.00 0.01 0.01 92 1024.2
20170924210705 56 84 0.0 3.0 0.00 0.01 0.01 92 1024.2
20170924205705 56 61 0.0 3.0 0.00 0.01 0.01 92 1024.3
20170924204704 56 61 0.0 3.0 0.00 0.01 0.01 91 1024.2
20170924203705 56 62 0.0 2.0 0.00 0.01 0.01 91 1024.2
20170924202706 56 62 0.0 0.0 0.00 0.01 0.01 90 1024.2
20170924201705 56 62 0.0 1.0 0.00 0.01 0.01 90 1024.3
20170924200704 56 62 0.0 0.0 0.00 0.01 0.01 89 1024.2
20170924195705 56 62 0.0 0.0 0.00 0.01 0.01 89 1024.1
20170924194705 57 62 1.0 3.0 0.00 0.01 0.01 89 1024.1
20170924193705 57 78 0.0 3.0 0.00 0.01 0.01 88 1024.0
20170924192704 57 78 0.0 0.0 0.00 0.01 0.01 87 1024.1
20170924191705 57 78 0.0 0.0 0.00 0.01 0.01 87 1024.1
20170924190705 58 78 0.0 1.0 0.00 0.01 0.01 86 1024.1
20170924185705 58 78 0.0 3.0 0.00 0.01 0.01 86 1024.1
20170924184705 58 79 0.0 3.0 0.00 0.01 0.01 85 1024.0
20170924183705 59 79 1.0 3.0 0.00 0.01 0.01 84 1024.0
20170924182706 59 68 1.0 3.0 0.00 0.01 0.01 83 1024.0
20170924181704 60 75 1.0 3.0 0.00 0.01 0.01 83 1024.0
20170924180705 60 74 0.0 3.0 0.00 0.01 0.01 82 1023.9
20170924175705 61 63 1.0 3.0 0.00 0.01 0.01 81 1023.9
20170924174705 61 80 1.0 3.0 0.00 0.01 0.01 80 1023.8
20170924173705 62 42 0.0 3.0 0.00 0.01 0.01 78 1023.8
20170924172705 62 42 0.0 2.0 0.00 0.01 0.01 76 1023.6
20170924171705 63 42 0.0 3.0 0.00 0.01 0.01 75 1023.6
20170924170705 63 26 1.0 3.0 0.00 0.01 0.01 74 1023.5
20170924165705 63 34 0.0 1.0 0.00 0.01 0.01 72 1023.5
20170924164705 64 34 0.0 3.0 0.00 0.01 0.01 71 1023.7
20170924163705 64 65 1.0 3.0 0.00 0.01 0.01 70 1023.6
20170924162705 65 17 0.0 3.0 0.00 0.01 0.01 69 1023.6
20170924161705 65 40 1.0 5.0 0.00 0.01 0.01 68 1023.6
20170924160705 65 82 2.0 5.0 0.00 0.01 0.01 68 1023.5
20170924155705 65 91 2.0 7.0 0.00 0.01 0.01 67 1023.5
20170924154705 66 31 3.0 8.0 0.00 0.01 0.01 66 1023.5
20170924153705 66 81 3.0 9.0 0.00 0.01 0.01 64 1023.5
20170924152705 67 88 3.0 9.0 0.00 0.01 0.01 63 1023.6
20170924151705 67 84 3.0 10.0 0.00 0.01 0.01 64 1023.6
20170924150705 67 103 4.0 8.0 0.00 0.01 0.01 64 1023.6
20170924145705 67 51 2.0 8.0 0.00 0.01 0.01 64 1023.6
20170924144705 67 53 4.0 12.0 0.00 0.01 0.01 63 1023.6
20170924143705 67 58 2.0 8.0 0.00 0.01 0.01 62 1023.7
20170924142705 68 44 4.0 9.0 0.00 0.01 0.01 61 1023.7
20170924141705 68 46 4.0 8.0 0.00 0.01 0.01 61 1023.9
20170924140706 69 79 3.0 9.0 0.00 0.01 0.01 61 1023.8
20170924135706 68 55 3.0 7.0 0.00 0.01 0.01 61 1023.9
20170924134706 68 38 3.0 12.0 0.00 0.01 0.01 62 1023.9
20170924133706 68 46 4.0 10.0 0.00 0.01 0.01 61 1023.9
20170924132705 68 40 4.0 9.0 0.00 0.01 0.01 62 1024.0
20170924131706 68 81 5.0 12.0 0.00 0.01 0.01 63 1024.0
20170924130706 68 72 6.0 10.0 0.00 0.01 0.01 62 1024.1
20170924125705 68 70 3.0 6.0 0.00 0.01 0.01 63 1024.1
20170924124705 67 75 3.0 9.0 0.00 0.01 0.01 63 1024.2
20170924123705 67 71 3.0 9.0 0.00 0.01 0.01 63 1024.2
20170924122706 67 78 4.0 10.0 0.00 0.01 0.01 64 1024.2
20170924121705 67 84 2.0 9.0 0.00 0.01 0.01 64 1024.2
20170924120706 67 72 6.0 12.0 0.00 0.01 0.01 64 1024.3
20170924115705 67 80 6.0 12.0 0.00 0.01 0.01 64 1024.2
20170924114705 66 45 5.0 8.0 0.00 0.01 0.01 67 1024.3
20170924113706 67 51 2.0 10.0 0.00 0.01 0.01 67 1024.3
20170924112706 67 76 4.0 10.0 0.00 0.01 0.01 67 1024.3
20170924111705 66 71 6.0 9.0 0.00 0.01 0.01 69 1024.3
20170924110706 66 75 5.0 9.0 0.00 0.01 0.01 69 1024.2
20170924105705 66 121 6.0 12.0 0.00 0.01 0.01 71 1024.1
20170924104705 66 68 3.0 12.0 0.00 0.01 0.01 72 1024.1
20170924103705 65 79 4.0 12.0 0.00 0.01 0.01 71 1024.1
20170924102705 65 74 5.0 10.0 0.00 0.01 0.01 71 1024.2
20170924101705 64 70 3.0 8.0 0.00 0.01 0.01 74 1024.2
20170924100705 64 92 3.0 6.0 0.00 0.01 0.01 78 1024.2
20170924095704 63 108 2.0 7.0 0.00 0.01 0.01 81 1024.3
20170924094705 61 84 2.0 5.0 0.00 0.01 0.01 88 1024.4
20170924093705 60 74 1.0 5.0 0.00 0.01 0.01 95 1024.4
20170924092704 57 116 1.0 3.0 0.00 0.01 0.01 98 1024.4
20170924091704 56 63 0.0 3.0 0.00 0.01 0.01 98 1024.3
20170924090705 56 78 0.0 3.0 0.00 0.01 0.01 98 1024.3
20170924085705 55 105 0.0 0.0 0.00 0.01 0.01 98 1024.3
20170924084705 54 105 0.0 0.0 0.00 0.01 0.01 98 1024.4
20170924083704 54 82 0.0 0.0 0.00 0.01 0.01 98 1024.4
20170924082705 53 37 0.0 0.0 0.00 0.01 0.01 98 1024.4
20170924081704 52 5 0.0 0.0 0.00 0.01 0.01 98 1024.5
20170924080705 52 5 0.0 0.0 0.00 0.01 0.01 98 1024.4
20170924075705 51 5 0.0 0.0 0.00 0.01 0.01 98 1024.4
20170924074706 50 9 0.0 0.0 0.00 0.01 0.01 97 1024.3
20170924073705 50 0 0.0 0.0 0.00 0.01 0.01 97 1024.3
20170924072704 49 0 0.0 0.0 0.00 0.01 0.01 97 1024.2
20170924071705 49 0 0.0 0.0 0.00 0.01 0.01 97 1024.1
20170924070704 48 0 0.0 0.0 0.01 0.01 0.01 97 1024.0
20170924065705 48 0 0.0 0.0 0.01 0.01 0.01 97 1024.0
20170924064705 48 0 0.0 0.0 0.01 0.01 0.01 97 1023.9
20170924063705 48 0 0.0 0.0 0.01 0.01 0.01 97 1024.0
20170924062705 48 51 0.0 0.0 0.01 0.01 0.01 97 1024.0
20170924061704 48 51 0.0 0.0 0.01 0.01 0.01 96 1023.9
20170924060705 48 51 0.0 0.0 0.00 0.00 0.00 96 1023.9
20170924055705 48 51 0.0 0.0 0.00 0.00 0.00 96 1023.9
20170924054705 48 51 0.0 0.0 0.00 0.00 0.00 96 1023.9
20170924053705 49 51 0.0 0.0 0.00 0.00 0.00 96 1024.0
20170924052705 49 51 0.0 0.0 0.00 0.00 0.00 96 1023.9
20170924051705 49 51 0.0 0.0 0.00 0.00 0.00 96 1023.8
20170924050706 49 51 0.0 0.0 0.00 0.00 0.00 96 1023.6
20170924045705 49 51 0.0 0.0 0.00 0.00 0.00 96 1023.6
20170924044705 49 13 0.0 0.0 0.00 0.00 0.00 96 1023.6
20170924043705 49 13 0.0 0.0 0.00 0.00 0.00 96 1023.6
20170924042706 49 13 0.0 0.0 0.00 0.00 0.00 96 1023.6
20170924041705 48 13 0.0 0.0 0.00 0.00 0.00 96 1023.6
20170924040705 48 13 0.0 0.0 0.00 0.00 0.00 96 1023.5
20170924035705 48 13 0.0 0.0 0.00 0.00 0.00 96 1023.5
20170924034705 47 13 0.0 0.0 0.00 0.00 0.00 95 1023.5
20170924033705 47 13 0.0 0.0 0.00 0.00 0.00 95 1023.6
20170924032705 46 13 0.0 0.0 0.00 0.00 0.00 95 1023.6
20170924031705 46 13 0.0 0.0 0.00 0.00 0.00 95 1023.6
20170924030705 46 13 0.0 0.0 0.00 0.00 0.00 94 1023.6
20170924025705 46 13 0.0 0.0 0.00 0.00 0.00 94 1023.7
20170924024704 46 13 0.0 0.0 0.00 0.00 0.00 94 1023.7
20170924023705 46 13 0.0 0.0 0.00 0.00 0.00 94 1023.7
20170924022705 46 13 0.0 0.0 0.00 0.00 0.00 94 1023.7
20170924021705 46 13 0.0 0.0 0.00 0.00 0.00 94 1023.7
20170924020705 46 13 0.0 0.0 0.00 0.00 0.00 94 1023.6
20170924015705 46 13 0.0 0.0 0.00 0.00 0.00 94 1023.7
20170924014705 46 13 0.0 0.0 0.00 0.00 0.00 94 1023.6
20170924013705 46 13 0.0 0.0 0.00 0.00 0.00 94 1023.7
20170924012705 46 13 0.0 0.0 0.00 0.00 0.00 93 1023.7
20170924011705 46 13 0.0 0.0 0.00 0.00 0.00 93 1023.8
20170924010705 47 13 0.0 0.0 0.00 0.00 0.00 94 1023.8
20170924005705 47 13 0.0 0.0 0.00 0.00 0.00 93 1023.8
20170924004705 47 13 0.0 0.0 0.00 0.00 0.00 93 1023.8
20170924003705 47 13 0.0 0.0 0.00 0.00 0.00 93 1023.8
20170924002706 47 13 0.0 0.0 0.00 0.00 0.00 93 1023.8
20170924001705 47 13 0.0 0.0 0.00 0.00 0.00 93 1023.9
20170924000705 47 13 0.0 0.0 0.00 0.00 0.00 93 1023.9
20170923235705 47 13 0.0 0.0 0.00 0.00 0.00 93 1024.0
20170923234705 48 13 0.0 0.0 0.00 0.00 0.00 93 1024.0
20170923233705 48 13 0.0 0.0 0.00 0.00 0.00 93 1024.1
20170923232706 48 13 0.0 0.0 0.00 0.00 0.00 93 1024.1
20170923231705 48 13 0.0 0.0 0.00 0.00 0.00 93 1024.2
20170923230705 48 13 0.0 0.0 0.00 0.00 0.00 92 1024.1
20170923225705 48 13 0.0 0.0 0.00 0.00 0.00 92 1024.2
20170923224705 48 13 0.0 0.0 0.00 0.00 0.00 92 1024.2
20170923223705 49 13 0.0 0.0 0.00 0.00 0.00 92 1024.1
20170923222705 49 13 0.0 0.0 0.00 0.00 0.00 92 1024.1
20170923221705 49 13 0.0 0.0 0.00 0.00 0.00 92 1024.2
20170923220705 49 13 0.0 0.0 0.00 0.00 0.00 91 1024.2
20170923215705 49 13 0.0 0.0 0.00 0.00 0.00 91 1024.1
20170923214706 49 13 0.0 0.0 0.00 0.00 0.00 91 1024.2
20170923213705 49 13 0.0 0.0 0.00 0.00 0.00 91 1024.1
20170923212706 50 13 0.0 0.0 0.00 0.00 0.00 91 1024.1